Página principal
METAR-TAF:

METAR-TAF

Aeroportos :

Bojnourd, Irão

latitude: 37-28N, longitude: 057-20E, altura: 1074 m

Observação actual do tempo

O boletim foi feito há 12 minutos, às 03:00 UTC
Vento calmo
Temperatura 11°C
Humidade 94%
Pressão 1014 hPa
Visibilidade: 3000 m
Poucas nuvensa uma altura de 1000 ft
Nuvens dispersasa uma altura de 3500 ft
neblina

METAR: OIMN 190300Z 00000KT 3000 BR FEW010 SCT035 11/10 Q1014

Hora: 07:42 (03:12 UTC)


TAF: em falta

Observações e previsões do tempo de mais de 4000 aeroportos (mensagens METAR e TAF).

As estações disponíveis são os pontos amarelos e vermelhos sobre o mapa.

Mova o rato sobre o mapa para ver o nome da estação.

Depois clique no ponto para visualizar as observações e previsões meteorológicas.

Para alterar o mapa : clique nos botões verdes com uma cruz preta para aumentar o zoom; no botão verde com uma pitada de zoom; ou nas setas verdes para mapas adjacentes.


METAR-TAF: